Tracking 19575 objects as of 21-Feb-2019
HD Live streaming from Space Station
objects crossing your sky now

SL-16 DEB

Track SL-16 DEB now!
10-day predictions


NORAD ID: 39884
Int'l Code: 1993-016BJ
Perigee: 740.2 km
Apogee: 924.4 km
Inclination: 71.0 °
Period: 101.4 minutes
Semi major axis: 7203 km
RCS: 0.0061 m2 (small)
Launch date: March 26, 1993
Source: Commonwealth of Independent States (former USSR) (CIS)
Launch site: TYURATAM MISSILE AND SPACE COMPLEX (TTMTR)

Note: This is SATELLITE DEBRIS
aabbcc
Your satellite tracking list
Your tracking list is empty




NASA's NSSDC Master Catalog

Two Line Element Set (TLE):
1 39884U 93016BJ  19044.76694919  .00001413  00000-0  63257-3 0  9995
2 39884  70.9671 201.9640 0127809 296.2637  62.5400 14.20054184729068
Source of the keplerian elements: AFSPC